| time (UTC) | temp C | wind direction | speed KPH | gust KPH | rain 1hr cm | rain 24hr cm | rain mn cm | humidity % | barometer mb |
| 20260503231817 | 6 | 162 | 3.2 | 4.8 | 0.00 | 0.00 | 0.00 | 77 | 1008.0 |
| 20260503231537 | 6 | 162 | 0.0 | 3.2 | 0.00 | 0.00 | 0.00 | 77 | 1008.0 |
| 20260503230814 | 6 | 162 | 1.6 | 6.4 | 0.00 | 0.00 | 0.00 | 77 | 1008.2 |
| 20260503230310 | 6 | 161 | 1.6 | 6.4 | 0.00 | 0.00 | 0.00 | 76 | 1008.2 |
| 20260503225809 | 6 | 178 | 0.0 | 3.2 | 0.00 | 0.00 | 0.00 | 77 | 1008.1 |
| 20260503225308 | 6 | 179 | 1.6 | 4.8 | 0.00 | 0.00 | 0.00 | 77 | 1008.2 |
| 20260503225028 | 6 | 179 | 1.6 | 4.8 | 0.00 | 0.00 | 0.00 | 77 | 1008.2 |
| 20260503224308 | 6 | 179 | 3.2 | 4.8 | 0.00 | 0.00 | 0.00 | 77 | 1008.3 |
| 20260503224026 | 6 | 179 | 1.6 | 4.8 | 0.00 | 0.00 | 0.00 | 77 | 1008.3 |
| 20260503223308 | 6 | 171 | 3.2 | 4.8 | 0.00 | 0.00 | 0.00 | 78 | 1008.3 |
| 20260503222808 | 6 | 171 | 3.2 | 4.8 | 0.00 | 0.00 | 0.00 | 78 | 1008.3 |
| 20260503222308 | 6 | 171 | 3.2 | 6.4 | 0.00 | 0.00 | 0.00 | 79 | 1008.4 |
| 20260503221808 | 6 | 169 | 3.2 | 6.4 | 0.00 | 0.00 | 0.00 | 79 | 1008.4 |
| 20260503221308 | 6 | 154 | 3.2 | 4.8 | 0.00 | 0.00 | 0.00 | 80 | 1008.5 |
| 20260503220808 | 6 | 155 | 1.6 | 8.0 | 0.00 | 0.00 | 0.00 | 80 | 1008.4 |
| 20260503220308 | 6 | 151 | 4.8 | 8.0 | 0.00 | 0.00 | 0.00 | 80 | 1008.5 |
| 20260503215807 | 6 | 128 | 4.8 | 8.0 | 0.00 | 0.00 | 0.00 | 80 | 1008.4 |
| 20260503215307 | 6 | 162 | 3.2 | 6.4 | 0.00 | 0.00 | 0.00 | 80 | 1008.5 |
| 20260503214807 | 6 | 162 | 4.8 | 6.4 | 0.00 | 0.00 | 0.00 | 80 | 1008.7 |
| 20260503214748 | 6 | 147 | 4.8 | 6.4 | 0.00 | 0.00 | 0.00 | 80 | 1008.6 |
| 20260503213807 | 6 | 141 | 3.2 | 6.4 | 0.00 | 0.00 | 0.00 | 80 | 1008.7 |
| 20260503213307 | 6 | 141 | 0.0 | 6.4 | 0.00 | 0.00 | 0.00 | 80 | 1008.7 |
| 20260503212807 | 6 | 140 | 1.6 | 8.0 | 0.00 | 0.00 | 0.00 | 80 | 1008.8 |
| 20260503212306 | 6 | 140 | 3.2 | 8.0 | 0.00 | 0.00 | 0.00 | 80 | 1008.8 |
| 20260503211806 | 6 | 164 | 3.2 | 6.4 | 0.00 | 0.00 | 0.00 | 80 | 1008.8 |
| 20260503211306 | 6 | 169 | 3.2 | 6.4 | 0.00 | 0.00 | 0.00 | 80 | 1008.9 |
| 20260503210807 | 6 | 176 | 3.2 | 6.4 | 0.00 | 0.00 | 0.00 | 80 | 1008.9 |
| 20260503210306 | 6 | 180 | 3.2 | 6.4 | 0.00 | 0.00 | 0.00 | 80 | 1008.9 |
| 20260503205806 | 6 | 157 | 4.8 | 6.4 | 0.00 | 0.00 | 0.00 | 80 | 1008.9 |
| 20260503205533 | 6 | 152 | 0.0 | 4.8 | 0.00 | 0.00 | 0.00 | 79 | 1008.9 |
| 20260503204806 | 6 | 152 | 0.0 | 8.0 | 0.00 | 0.00 | 0.00 | 79 | 1008.9 |
| 20260503204306 | 6 | 152 | 3.2 | 8.0 | 0.00 | 0.00 | 0.00 | 79 | 1008.9 |
| 20260503203806 | 6 | 151 | 3.2 | 8.0 | 0.00 | 0.00 | 0.00 | 80 | 1008.9 |
| 20260503203306 | 6 | 175 | 4.8 | 6.4 | 0.00 | 0.00 | 0.00 | 80 | 1008.9 |
| 20260503203034 | 6 | 176 | 3.2 | 6.4 | 0.00 | 0.00 | 0.00 | 80 | 1008.8 |
| 20260503202305 | 6 | 176 | 3.2 | 6.4 | 0.00 | 0.00 | 0.00 | 81 | 1008.8 |
| 20260503201806 | 6 | 155 | 1.6 | 6.4 | 0.00 | 0.00 | 0.00 | 81 | 1009.0 |
| 20260503201303 | 6 | 151 | 4.8 | 6.4 | 0.00 | 0.00 | 0.00 | 81 | 1008.9 |
| 20260503200803 | 6 | 148 | 4.8 | 6.4 | 0.00 | 0.00 | 0.00 | 80 | 1009.0 |
| 20260503200303 | 6 | 127 | 3.2 | 6.4 | 0.00 | 0.00 | 0.00 | 81 | 1009.0 |
| 20260503200054 | 6 | 127 | 3.2 | 6.4 | 0.00 | 0.00 | 0.00 | 81 | 1009.0 |
| 20260503195304 | 6 | 127 | 4.8 | 6.4 | 0.00 | 0.00 | 0.00 | 81 | 1009.0 |
| 20260503194803 | 6 | 127 | 3.2 | 4.8 | 0.00 | 0.00 | 0.00 | 81 | 1009.0 |
| 20260503194303 | 6 | 140 | 3.2 | 4.8 | 0.00 | 0.00 | 0.00 | 80 | 1009.0 |
| 20260503193805 | 6 | 140 | 3.2 | 4.8 | 0.00 | 0.00 | 0.00 | 81 | 1009.1 |
| 20260503193303 | 6 | 140 | 1.6 | 6.4 | 0.00 | 0.00 | 0.00 | 81 | 1009.1 |
| 20260503193020 | 6 | 141 | 3.2 | 6.4 | 0.00 | 0.00 | 0.00 | 81 | 1009.1 |
| 20260503192302 | 6 | 138 | 4.8 | 6.4 | 0.00 | 0.00 | 0.00 | 81 | 1009.1 |
| 20260503191803 | 6 | 97 | 3.2 | 6.4 | 0.00 | 0.00 | 0.00 | 82 | 1009.1 |
| 20260503191305 | 6 | 93 | 3.2 | 6.4 | 0.00 | 0.00 | 0.00 | 82 | 1009.1 |
| 20260503190805 | 6 | 93 | 4.8 | 4.8 | 0.00 | 0.00 | 0.00 | 82 | 1009.1 |
| 20260503190521 | 6 | 89 | 3.2 | 6.4 | 0.00 | 0.00 | 0.00 | 82 | 1009.2 |
| 20260503190029 | 6 | 87 | 4.8 | 6.4 | 0.00 | 0.00 | 0.00 | 82 | 1009.2 |
| 20260503185306 | 6 | 116 | 3.2 | 4.8 | 0.00 | 0.00 | 0.00 | 82 | 1009.2 |
| 20260503184806 | 6 | 116 | 3.2 | 4.8 | 0.00 | 0.00 | 0.00 | 82 | 1009.2 |
| 20260503184304 | 7 | 116 | 3.2 | 4.8 | 0.00 | 0.00 | 0.00 | 82 | 1009.2 |
| 20260503183805 | 7 | 116 | 3.2 | 4.8 | 0.00 | 0.00 | 0.00 | 82 | 1009.3 |
| 20260503183750 | 7 | 116 | 3.2 | 6.4 | 0.00 | 0.00 | 0.00 | 82 | 1009.2 |
| 20260503182805 | 7 | 111 | 4.8 | 6.4 | 0.00 | 0.00 | 0.00 | 82 | 1009.2 |
| 20260503182305 | 7 | 90 | 6.4 | 8.0 | 0.00 | 0.00 | 0.00 | 82 | 1009.1 |
| 20260503182027 | 7 | 47 | 4.8 | 8.0 | 0.00 | 0.00 | 0.00 | 82 | 1009.1 |
| 20260503181524 | 7 | 130 | 3.2 | 6.4 | 0.00 | 0.00 | 0.00 | 82 | 1009.1 |
| 20260503181251 | 7 | 89 | 3.2 | 8.0 | 0.00 | 0.00 | 0.00 | 82 | 1009.1 |
| 20260503180527 | 7 | 79 | 6.4 | 8.0 | 0.00 | 0.00 | 0.00 | 82 | 1009.1 |
| 20260503180028 | 7 | 107 | 4.8 | 6.4 | 0.00 | 0.00 | 0.00 | 82 | 1009.1 |
| 20260503175305 | 7 | 140 | 3.2 | 8.0 | 0.00 | 0.00 | 0.00 | 82 | 1009.2 |
| 20260503174805 | 7 | 141 | 3.2 | 8.0 | 0.00 | 0.00 | 0.00 | 81 | 1009.1 |
| 20260503174305 | 7 | 96 | 4.8 | 8.0 | 0.00 | 0.00 | 0.00 | 81 | 1009.1 |
| 20260503173805 | 7 | 102 | 3.2 | 6.4 | 0.00 | 0.00 | 0.00 | 81 | 1009.1 |
| 20260503173523 | 7 | 138 | 3.2 | 6.4 | 0.00 | 0.00 | 0.00 | 81 | 1009.2 |
| 20260503173045 | 7 | 138 | 4.8 | 6.4 | 0.00 | 0.00 | 0.00 | 81 | 1009.2 |
| 20260503172528 | 7 | 111 | 4.8 | 6.4 | 0.00 | 0.00 | 0.00 | 81 | 1009.2 |
| 20260503171804 | 7 | 66 | 4.8 | 8.0 | 0.00 | 0.00 | 0.00 | 81 | 1009.2 |
| 20260503171304 | 7 | 92 | 3.2 | 8.0 | 0.00 | 0.00 | 0.00 | 81 | 1009.2 |
| 20260503171024 | 7 | 100 | 6.4 | 9.7 | 0.00 | 0.00 | 0.00 | 81 | 1009.3 |
| 20260503170304 | 7 | 90 | 6.4 | 9.7 | 0.00 | 0.00 | 0.00 | 80 | 1009.3 |
| 20260503150805 | 7 | 103 | 8.0 | 11.3 | 0.00 | 0.00 | 0.00 | 76 | 1009.4 |
| 20260503150304 | 7 | 80 | 6.4 | 11.3 | 0.00 | 0.00 | 0.00 | 76 | 1009.6 |
| 20260503140304 | 7 | 49 | 6.4 | 11.3 | 0.00 | 0.00 | 0.00 | 75 | 1010.2 |
| 20260503131304 | 7 | 39 | 9.7 | 14.5 | 0.00 | 0.00 | 0.00 | 75 | 1010.3 |
| 20260503130804 | 7 | 83 | 9.7 | 14.5 | 0.00 | 0.00 | 0.00 | 75 | 1010.2 |
| 20260503130305 | 7 | 65 | 8.0 | 16.1 | 0.00 | 0.00 | 0.00 | 75 | 1010.2 |
| 20260503110803 | 8 | 51 | 6.4 | 17.7 | 0.00 | 0.00 | 0.00 | 71 | 1010.5 |
| 20260503110304 | 8 | 51 | 14.5 | 17.7 | 0.00 | 0.00 | 0.00 | 71 | 1010.4 |
| 20260503090304 | 7 | 42 | 6.4 | 14.5 | 0.00 | 0.00 | 0.00 | 75 | 1010.4 |
| 20260503081303 | 8 | 71 | 9.7 | 16.1 | 0.00 | 0.00 | 0.00 | 78 | 1010.0 |
| 20260503081024 | 7 | 72 | 9.7 | 19.3 | 0.00 | 0.00 | 0.00 | 79 | 1010.0 |
| 20260503080528 | 7 | 54 | 9.7 | 19.3 | 0.00 | 0.00 | 0.00 | 79 | 1010.0 |
| 20260503072803 | 7 | 66 | 12.9 | 20.9 | 0.00 | 0.00 | 0.00 | 81 | 1009.8 |
| 20260503072305 | 7 | 1 | 11.3 | 22.5 | 0.00 | 0.00 | 0.00 | 81 | 1009.8 |
| 20260503072244 | 7 | 24 | 14.5 | 22.5 | 0.00 | 0.00 | 0.00 | 81 | 1009.8 |
| 20260503071303 | 7 | 66 | 14.5 | 20.9 | 0.00 | 0.00 | 0.00 | 82 | 1009.6 |
| 20260503070802 | 7 | 49 | 11.3 | 20.9 | 0.00 | 0.00 | 0.00 | 82 | 1009.5 |
| 20260503070303 | 7 | 30 | 16.1 | 22.5 | 0.00 | 0.00 | 0.00 | 82 | 1009.7 |
| 20260503060305 | 7 | 51 | 6.4 | 20.9 | 0.00 | 0.00 | 0.00 | 85 | 1009.4 |
| 20260503054803 | 7 | 72 | 4.8 | 19.3 | 0.00 | 0.00 | 0.00 | 85 | 1009.4 |
| 20260503054303 | 7 | 58 | 14.5 | 19.3 | 0.00 | 0.00 | 0.00 | 85 | 1009.3 |
| 20260503053803 | 7 | 44 | 9.7 | 19.3 | 0.00 | 0.00 | 0.00 | 85 | 1009.4 |
| 20260503053303 | 7 | 69 | 8.0 | 19.3 | 0.00 | 0.00 | 0.00 | 85 | 1009.4 |
| 20260503052804 | 7 | 66 | 11.3 | 19.3 | 0.00 | 0.00 | 0.00 | 86 | 1009.4 |
| 20260503052305 | 7 | 47 | 12.9 | 19.3 | 0.00 | 0.00 | 0.00 | 86 | 1009.3 |
| 20260503051803 | 7 | 39 | 12.9 | 19.3 | 0.00 | 0.00 | 0.00 | 87 | 1009.4 |
| 20260503051304 | 7 | 47 | 11.3 | 16.1 | 0.00 | 0.00 | 0.00 | 87 | 1009.3 |
| 20260503050804 | 8 | 39 | 8.0 | 19.3 | 0.00 | 0.00 | 0.00 | 87 | 1009.2 |
| 20260503050304 | 8 | 42 | 9.7 | 19.3 | 0.00 | 0.00 | 0.00 | 88 | 1009.1 |
| 20260503045804 | 8 | 48 | 11.3 | 24.1 | 0.00 | 0.00 | 0.00 | 87 | 1009.0 |
| 20260503045305 | 8 | 86 | 11.3 | 24.1 | 0.00 | 0.00 | 0.00 | 86 | 1008.9 |
| 20260503044803 | 9 | 45 | 14.5 | 22.5 | 0.00 | 0.00 | 0.00 | 85 | 1008.7 |
| 20260503044303 | 10 | 41 | 14.5 | 22.5 | 0.00 | 0.00 | 0.00 | 85 | 1008.8 |
| 20260503044027 | 10 | 34 | 8.0 | 16.1 | 0.00 | 0.00 | 0.00 | 86 | 1008.8 |
| 20260503043302 | 10 | 39 | 9.7 | 16.1 | 0.00 | 0.00 | 0.00 | 85 | 1008.8 |
| 20260503042803 | 10 | 35 | 6.4 | 17.7 | 0.00 | 0.00 | 0.00 | 84 | 1008.8 |
| 20260503042522 | 10 | 58 | 9.7 | 19.3 | 0.00 | 0.00 | 0.00 | 83 | 1008.9 |
| 20260503041802 | 10 | 17 | 12.9 | 19.3 | 0.00 | 0.00 | 0.00 | 82 | 1008.8 |
| 20260503041302 | 10 | 1 | 4.8 | 17.7 | 0.00 | 0.00 | 0.00 | 81 | 1008.8 |
| 20260503040803 | 11 | 6 | 4.8 | 17.7 | 0.00 | 0.00 | 0.00 | 80 | 1008.8 |
| 20260503040302 | 11 | 32 | 8.0 | 16.1 | 0.00 | 0.00 | 0.00 | 78 | 1008.6 |
| 20260503035802 | 11 | 18 | 8.0 | 16.1 | 0.00 | 0.00 | 0.00 | 76 | 1008.5 |
| 20260503035304 | 11 | 30 | 4.8 | 16.1 | 0.00 | 0.00 | 0.00 | 73 | 1008.3 |
| 20260503034804 | 11 | 47 | 9.7 | 16.1 | 0.00 | 0.00 | 0.00 | 71 | 1008.1 |
| 20260503034304 | 12 | 11 | 8.0 | 11.3 | 0.00 | 0.00 | 0.00 | 69 | 1008.0 |
| 20260503033804 | 12 | 355 | 6.4 | 9.7 | 0.00 | 0.00 | 0.00 | 68 | 1008.0 |
| 20260503033304 | 12 | 25 | 3.2 | 6.4 | 0.00 | 0.00 | 0.00 | 67 | 1007.8 |
| 20260503032804 | 12 | 0 | 6.4 | 8.0 | 0.00 | 0.00 | 0.00 | 66 | 1007.7 |
| 20260503032305 | 12 | 56 | 4.8 | 11.3 | 0.00 | 0.00 | 0.00 | 66 | 1007.6 |
| 20260503031804 | 12 | 58 | 6.4 | 11.3 | 0.00 | 0.00 | 0.00 | 66 | 1007.5 |
| 20260503031530 | 12 | 44 | 3.2 | 8.0 | 0.00 | 0.00 | 0.00 | 65 | 1007.7 |
| 20260503031030 | 12 | 44 | 3.2 | 8.0 | 0.00 | 0.00 | 0.00 | 65 | 1007.6 |
| 20260503030304 | 12 | 35 | 4.8 | 14.5 | 0.00 | 0.00 | 0.00 | 65 | 1007.6 |
| 20260503025804 | 12 | 1 | 9.7 | 14.5 | 0.00 | 0.00 | 0.00 | 65 | 1007.5 |
| 20260503025305 | 12 | 52 | 4.8 | 9.7 | 0.00 | 0.00 | 0.00 | 65 | 1007.6 |
| 20260503024804 | 12 | 21 | 6.4 | 11.3 | 0.00 | 0.00 | 0.00 | 64 | 1007.6 |
| 20260503024304 | 12 | 44 | 8.0 | 11.3 | 0.00 | 0.00 | 0.00 | 64 | 1007.4 |
| 20260503023804 | 13 | 32 | 6.4 | 8.0 | 0.00 | 0.00 | 0.00 | 64 | 1007.4 |
| 20260503023304 | 13 | 47 | 6.4 | 8.0 | 0.00 | 0.00 | 0.00 | 64 | 1007.4 |
| 20260503022806 | 13 | 49 | 4.8 | 9.7 | 0.00 | 0.00 | 0.00 | 63 | 1007.3 |
| 20260503022526 | 13 | 68 | 6.4 | 11.3 | 0.00 | 0.00 | 0.00 | 63 | 1007.2 |
| 20260503021805 | 13 | 75 | 6.4 | 14.5 | 0.00 | 0.00 | 0.00 | 62 | 1007.1 |
| 20260503021304 | 13 | 31 | 11.3 | 17.7 | 0.00 | 0.00 | 0.00 | 62 | 1007.1 |
| 20260503020803 | 13 | 78 | 9.7 | 17.7 | 0.00 | 0.00 | 0.00 | 61 | 1007.1 |
| 20260503020304 | 13 | 76 | 6.4 | 11.3 | 0.00 | 0.00 | 0.00 | 61 | 1007.5 |
| 20260503020030 | 14 | 39 | 8.0 | 16.1 | 0.00 | 0.00 | 0.00 | 59 | 1007.6 |
| 20260503015305 | 14 | 27 | 9.7 | 16.1 | 0.00 | 0.00 | 0.00 | 58 | 1007.5 |
| 20260503014803 | 14 | 20 | 8.0 | 14.5 | 0.00 | 0.00 | 0.00 | 57 | 1007.6 |
| 20260503014303 | 14 | 47 | 8.0 | 22.5 | 0.00 | 0.00 | 0.00 | 57 | 1007.5 |
| 20260503014022 | 14 | 31 | 9.7 | 22.5 | 0.00 | 0.00 | 0.00 | 56 | 1007.6 |
| 20260503013304 | 15 | 45 | 8.0 | 17.7 | 0.00 | 0.00 | 0.00 | 56 | 1007.6 |
| 20260503013244 | 15 | 0 | 4.8 | 17.7 | 0.00 | 0.00 | 0.00 | 56 | 1007.8 |
| 20260503012523 | 15 | 8 | 6.4 | 14.5 | 0.00 | 0.00 | 0.00 | 56 | 1007.6 |
| 20260503011805 | 15 | 41 | 8.0 | 16.1 | 0.00 | 0.00 | 0.00 | 57 | 1007.5 |
| 20260503011305 | 15 | 27 | 6.4 | 16.1 | 0.00 | 0.00 | 0.00 | 57 | 1007.6 |
| 20260503010805 | 15 | 324 | 6.4 | 14.5 | 0.00 | 0.00 | 0.00 | 57 | 1007.7 |
| 20260503010305 | 15 | 347 | 3.2 | 11.3 | 0.00 | 0.00 | 0.00 | 57 | 1007.6 |
| 20260503005805 | 15 | 320 | 4.8 | 11.3 | 0.00 | 0.00 | 0.00 | 56 | 1007.6 |
| 20260503005526 | 15 | 321 | 4.8 | 14.5 | 0.00 | 0.00 | 0.00 | 56 | 1007.5 |
| 20260503004805 | 15 | 307 | 8.0 | 14.5 | 0.00 | 0.00 | 0.00 | 56 | 1007.6 |
| 20260503004304 | 15 | 324 | 8.0 | 11.3 | 0.00 | 0.00 | 0.00 | 56 | 1007.5 |
| 20260503003804 | 15 | 316 | 8.0 | 16.1 | 0.00 | 0.00 | 0.00 | 56 | 1007.5 |
| 20260503003530 | 15 | 305 | 9.7 | 16.1 | 0.00 | 0.00 | 0.00 | 56 | 1007.5 |
| 20260503003028 | 15 | 296 | 6.4 | 14.5 | 0.00 | 0.00 | 0.00 | 56 | 1007.4 |
| 20260503002305 | 15 | 306 | 6.4 | 8.0 | 0.00 | 0.00 | 0.00 | 57 | 1007.2 |
| 20260503002028 | 15 | 289 | 4.8 | 9.7 | 0.00 | 0.00 | 0.00 | 57 | 1007.2 |
| 20260503001304 | 15 | 293 | 4.8 | 9.7 | 0.00 | 0.00 | 0.00 | 57 | 1007.2 |
| 20260503001029 | 15 | 282 | 3.2 | 4.8 | 0.00 | 0.00 | 0.00 | 56 | 1007.3 |
| 20260503000523 | 16 | 292 | 3.2 | 6.4 | 0.00 | 0.00 | 0.00 | 56 | 1007.2 |
| 20260502235804 | 16 | 282 | 3.2 | 6.4 | 0.00 | 0.00 | 0.00 | 56 | 1007.2 |
| 20260502235305 | 16 | 292 | 3.2 | 4.8 | 0.00 | 0.00 | 0.00 | 56 | 1007.2 |
| 20260502235024 | 16 | 281 | 1.6 | 6.4 | 0.00 | 0.00 | 0.00 | 55 | 1007.1 |
| 20260502234305 | 16 | 302 | 4.8 | 6.4 | 0.00 | 0.00 | 0.00 | 55 | 1007.1 |
| 20260502233804 | 16 | 281 | 4.8 | 8.0 | 0.00 | 0.00 | 0.00 | 55 | 1007.1 |
| 20260502233304 | 16 | 299 | 4.8 | 8.0 | 0.00 | 0.00 | 0.00 | 55 | 1007.1 |
| 20260502233030 | 16 | 278 | 1.6 | 4.8 | 0.00 | 0.00 | 0.00 | 55 | 1007.1 |